Location: Amber Place
(27.9751°N, 82.3711°W)
Time: 10:11:18
(UTC+00:00)

Tiangong - Pass Details

Date: 26 September 2021
Orbit: 382 x 385 km, 41.5° (Epoch: 17 October)

Event Time Altitude Azimuth Distance (km) Brightness Sun altitude
Exits shadow 10:04:38 30° 331° (NNW) 705 2.2 -17.4°
Maximum altitude 10:04:40 30° 332° (NNW) 705 2.2 -17.4°
Drops below altitude 10° 10:07:30 10° 37° (NE) 1,393 4.5 -16.8°
Sets 10:09:43 0° 48° (NE) 2,246 5.9 -16.3°
